Torna al catalogo

STARLINK-30123

AttivoComunicazioniVLEO
NORAD 56838·PAYLOAD·🇺🇸 United States

Lanciato Jun 4, 2023 da Cape Canaveral Space Force Station

Loading…

Prossimi Passaggi (prossime 24 ore)

TLE

AggiornatoSource: CelesTrak SupGP

Epoca: Sep 15, 2026, 03:03 UTC

1 56838C 23079R   26258.12756944 -.00022196  00000+0 -80379-3 0  2581
2 56838  43.0011  44.0940 0001459 268.5083 255.9601 15.27594742    18

Traccia STARLINK-30123 in tempo reale con AllMySat

Download on the App Store